Date String (YYYY-MM-DD hh:mm:ss) UTC,Instrument flags,Ambient pressure (hPa),Sample flow (lpm),Bypass flow (lpm),Sample temperature (°C),Ambient temperature (°C),ASC tube jacket temperature (°C),LED temperature (°C),Box temperature (°C),Sample RH (%),Span deviation,Mass concentration (μg/m³),Mass concentration (μg/m³),Mass concentration (μg/m³)
DateTimeUTC,F1_M11,P_M11,Q1_M11,Q2_M11,T1_M11,T2_M11,T3_M11,T4_M11,T5_M11,U1_M11,ZSPAN_M11,X0_M11,X2_M11,X1_M11
2022-08-13 15:00:00,,0832.8,5.00,0.00,29.7,28.7,00.0,38.5,31.6,34.4,0000.0,0011.69,0006.08,0005.27
2022-08-13 15:01:00,,0832.8,4.99,0.00,29.8,28.7,00.0,38.5,31.6,34.2,0000.0,0011.25,0006.04,0005.26
2022-08-13 15:02:00,,0832.8,5.00,0.00,29.8,28.6,00.0,38.5,31.6,34.3,0000.0,0010.71,0006.04,0005.24
2022-08-13 15:03:00,,0832.7,5.01,0.00,29.7,28.0,00.0,38.4,31.4,34.4,0000.0,0010.41,0006.03,0005.23
2022-08-13 15:04:00,,0832.7,5.00,0.00,29.7,27.6,00.0,38.4,31.3,34.3,0000.0,0010.39,0006.03,0005.24
2022-08-13 15:05:00,,0832.7,4.99,0.00,29.6,27.4,00.0,38.4,31.2,34.4,0000.0,0010.63,0006.08,0005.26
2022-08-13 15:06:00,,0832.8,5.01,0.00,29.6,27.4,00.0,38.4,31.2,34.3,0000.0,0010.75,0006.11,0005.27
2022-08-13 15:07:00,,0832.7,4.99,0.00,29.5,27.5,00.0,38.3,31.2,34.3,0000.0,0010.90,0006.13,0005.27
2022-08-13 15:08:00,,0832.7,5.00,0.00,29.5,27.7,00.0,38.3,31.2,34.7,0000.0,0011.30,0006.10,0005.26
2022-08-13 15:09:00,,0832.7,5.00,0.00,29.5,27.8,00.0,38.3,31.3,35.0,0000.0,0011.38,0006.10,0005.25
2022-08-13 15:10:00,,0832.8,5.00,0.00,29.6,28.0,00.0,38.3,31.3,35.0,0000.0,0011.57,0006.07,0005.26
2022-08-13 15:11:00,,0832.7,4.99,0.00,29.7,28.1,00.0,38.3,31.5,34.3,0000.0,0011.20,0006.04,0005.23
2022-08-13 15:12:00,,0832.7,4.99,0.00,29.8,28.2,00.0,38.3,31.5,34.5,0000.0,0011.40,0006.02,0005.18
2022-08-13 15:13:00,,0832.7,5.00,0.00,29.9,28.3,00.0,38.3,31.5,34.1,0000.0,0011.63,0005.96,0005.15
2022-08-13 15:14:00,,0832.7,5.00,0.00,29.9,28.4,00.0,38.4,31.5,33.6,0000.0,0011.56,0005.90,0005.11
2022-08-13 15:15:00,,0832.7,5.00,0.00,29.9,28.5,00.0,38.4,31.5,33.6,0000.0,0012.14,0005.90,0005.09
2022-08-13 15:16:00,,0832.7,5.00,0.00,30.0,28.6,00.0,38.4,31.6,33.1,0000.0,0012.38,0005.82,0005.04
2022-08-13 15:17:00,,0832.7,5.00,0.00,30.0,28.7,00.0,38.5,31.6,33.0,0000.0,0012.35,0005.73,0005.01
2022-08-13 15:18:00,,0832.7,5.00,0.00,30.0,28.6,00.0,38.5,31.6,33.6,0000.0,0012.16,0005.65,0004.97
2022-08-13 15:19:00,,0832.7,5.00,0.00,30.0,28.0,00.0,38.5,31.4,34.1,0000.0,0011.91,0005.66,0004.95
2022-08-13 15:20:00,,0832.7,5.00,0.00,29.9,27.6,00.0,38.4,31.3,33.5,0000.0,0011.66,0005.61,0004.93
2022-08-13 15:21:00,,0832.6,4.99,0.00,29.9,27.4,00.0,38.4,31.3,33.7,0000.0,0011.43,0005.57,0004.91
2022-08-13 15:22:00,,0832.7,5.01,0.00,29.8,27.5,00.0,38.4,31.2,34.1,0000.0,0011.60,0005.55,0004.90
2022-08-13 15:23:00,,0832.7,4.99,0.00,29.7,27.6,00.0,38.4,31.2,34.4,0000.0,0011.52,0005.55,0004.91
2022-08-13 15:24:00,,0832.6,5.00,0.00,29.7,27.7,00.0,38.4,31.3,34.2,0000.0,0011.28,0005.57,0004.91
2022-08-13 15:25:00,,0832.6,5.02,0.00,29.7,27.9,00.0,38.4,31.3,34.0,0000.0,0011.27,0005.59,0004.90
2022-08-13 15:26:00,,0832.6,5.00,0.00,29.7,28.0,00.0,38.4,31.4,34.1,0000.0,0010.75,0005.57,0004.90
2022-08-13 15:27:00,,0832.7,5.00,0.00,29.7,28.2,00.0,38.4,31.4,34.3,0000.0,0010.23,0005.55,0004.91
2022-08-13 15:28:00,,0832.7,5.00,0.00,29.7,28.3,00.0,38.4,31.4,34.5,0000.0,0009.90,0005.58,0004.91
2022-08-13 15:29:00,,0832.6,5.00,0.00,29.7,28.4,00.0,38.4,31.5,34.1,0000.0,0010.00,0005.62,0004.91
2022-08-13 15:30:00,,0832.6,5.00,0.00,29.8,28.5,00.0,38.4,31.5,34.0,0000.0,0009.99,0005.65,0004.91
2022-08-13 15:31:00,,0832.6,5.00,0.00,29.8,28.6,00.0,38.5,31.5,34.2,0000.0,0009.88,0005.63,0004.90
2022-08-13 15:32:00,,0832.6,5.00,0.00,29.8,28.5,00.0,38.4,31.5,34.0,0000.0,0009.77,0005.63,0004.90
2022-08-13 15:33:00,,0832.6,5.00,0.00,29.8,27.8,00.0,38.4,31.3,33.9,0000.0,0009.63,0005.66,0004.91
2022-08-13 15:34:00,,0832.6,5.00,0.00,29.7,27.4,00.0,38.4,31.3,33.9,0000.0,0010.11,0005.66,0004.92
2022-08-13 15:35:00,,0832.6,5.02,0.00,29.6,27.3,00.0,38.3,31.2,34.0,0000.0,0010.05,0005.63,0004.92
2022-08-13 15:36:00,,0832.5,4.98,0.00,29.6,27.4,00.0,38.3,31.2,34.3,0000.0,0010.59,0005.62,0004.92
2022-08-13 15:37:00,,0832.6,5.01,0.00,29.5,27.5,00.0,38.3,31.2,34.1,0000.0,0010.81,0005.63,0004.92
2022-08-13 15:38:00,,0832.6,5.00,0.00,29.5,27.7,00.0,38.3,31.2,34.4,0000.0,0010.91,0005.66,0004.92
2022-08-13 15:39:00,,0832.5,4.99,0.00,29.5,27.9,00.0,38.3,31.3,34.4,0000.0,0010.80,0005.63,0004.91
2022-08-13 15:40:00,,0832.5,5.00,0.00,29.5,28.0,00.0,38.3,31.3,34.4,0000.0,0010.78,0005.63,0004.91
2022-08-13 15:41:00,,0832.5,4.99,0.00,29.5,28.1,00.0,38.3,31.3,34.3,0000.0,0011.53,0005.62,0004.91
2022-08-13 15:42:00,,0832.6,5.00,0.00,29.6,28.3,00.0,38.3,31.4,34.3,0000.0,0011.52,0005.60,0004.90
2022-08-13 15:43:00,,0832.5,5.00,0.00,29.6,28.4,00.0,38.3,31.4,34.2,0000.0,0011.69,0005.59,0004.89
2022-08-13 15:44:00,,0832.5,5.00,0.00,29.6,28.5,00.0,38.3,31.5,34.4,0000.0,0011.38,0005.52,0004.86
2022-08-13 15:45:00,,0832.6,5.00,0.00,29.6,28.5,00.0,38.3,31.5,34.4,0000.0,0010.82,0005.51,0004.84
2022-08-13 15:46:00,,0832.5,5.01,0.00,29.6,28.1,00.0,38.3,31.4,34.5,0000.0,0010.93,0005.55,0004.85
2022-08-13 15:47:00,,0832.6,4.99,0.00,29.6,27.5,00.0,38.3,31.2,34.8,0000.0,0010.63,0005.55,0004.84
2022-08-13 15:48:00,,0832.6,5.01,0.00,29.5,27.4,00.0,38.2,31.1,34.6,0000.0,0010.61,0005.55,0004.84
2022-08-13 15:49:00,,0832.6,4.99,0.00,29.4,27.4,00.0,38.2,31.1,34.4,0000.0,0010.50,0005.52,0004.84
2022-08-13 15:50:00,,0832.6,5.02,0.00,29.4,27.5,00.0,38.2,31.1,34.8,0000.0,0010.51,0005.52,0004.84
2022-08-13 15:51:00,,0832.6,4.98,0.00,29.4,27.7,00.0,38.2,31.2,34.8,0000.0,0010.45,0005.49,0004.84
2022-08-13 15:52:00,,0832.6,4.99,0.00,29.4,27.8,00.0,38.2,31.2,34.8,0000.0,0009.73,0005.47,0004.84
2022-08-13 15:53:00,,0832.5,5.00,0.00,29.5,28.0,00.0,38.2,31.3,35.3,0000.0,0010.10,0005.50,0004.84
2022-08-13 15:54:00,,0832.6,5.00,0.00,29.7,28.1,00.0,38.2,31.5,34.8,0000.0,0010.03,0005.51,0004.83
2022-08-13 15:55:00,,0832.6,5.00,0.00,29.9,28.3,00.0,38.2,31.5,34.5,0000.0,0010.85,0005.52,0004.81
2022-08-13 15:56:00,,0832.6,5.00,0.00,30.0,28.4,00.0,38.3,31.6,34.2,0000.0,0011.28,0005.47,0004.79
2022-08-13 15:57:00,,0832.7,5.00,0.00,30.1,28.5,00.0,38.3,31.6,33.8,0000.0,0011.33,0005.39,0004.75
2022-08-13 15:58:00,,0832.6,4.99,0.00,30.1,28.1,00.0,38.3,31.5,33.9,0000.0,0010.94,0005.34,0004.71
2022-08-13 15:59:00,,0832.5,5.01,0.00,30.0,27.5,00.0,38.3,31.3,33.8,0000.0,0010.74,0005.30,0004.68
